IBADAL6 Weather Reports


time (UTC)temp
F
wind
direction
speed
knots
gust
knots
rain 1hr
in
rain 24hr
in
rain mn
in
humidity
%
barometer
mb
20260510091557 71 252 2.6 12.2 0.00 0.51 0.00 67 1013.0
20260510090101 69 238 3.5 12.2 0.00 0.51 0.00 69 1013.1
20260510084554 69 233 7.0 11.3 0.00 0.51 0.00 70 1013.1
20260510083043 68 215 5.2 8.7 0.00 0.51 0.00 71 1013.3
20260510081545 67 238 4.3 9.6 0.00 0.51 0.00 72 1013.1
20260510080042 66 246 5.2 9.6 0.00 0.51 0.00 73 1013.0
20260510074534 66 226 4.3 7.8 0.00 0.52 0.00 74 1012.8
20260510073038 65 257 0.9 5.2 0.00 0.52 0.00 77 1012.8
20260510071625 63 285 0.9 4.3 0.00 0.52 0.00 78 1012.8
20260510070026 62 244 0.0 5.2 0.00 0.52 0.00 80 1012.7
20260510064545 61 274 0.0 5.2 0.00 0.52 0.00 82 1012.7
20260510063022 59 285 0.9 5.2 0.00 0.52 0.00 82 1012.6
20260510061530 59 284 0.0 6.1 0.00 0.52 0.00 83 1012.6
20260510060028 59 258 0.0 5.2 0.00 0.52 0.00 82 1012.5
20260510054516 58 282 0.9 3.5 0.00 0.52 0.00 83 1012.5
20260510053014 58 264 0.9 2.6 0.00 0.52 0.00 84 1012.5
20260510051513 57 264 0.9 4.3 0.00 0.52 0.00 85 1012.4
20260510050017 56 264 0.0 4.3 0.00 0.52 0.00 85 1012.3
20260510044513 56 288 0.9 6.1 0.00 0.52 0.00 85 1012.3
20260510043010 56 291 1.7 5.2 0.00 0.52 0.00 85 1012.5
20260510041509 56 274 0.9 2.6 0.00 0.52 0.00 85 1012.5
20260510040009 56 297 0.0 3.5 0.00 0.52 0.00 85 1012.5
20260510034507 57 291 0.9 4.3 0.00 0.53 0.00 85 1012.4
20260510033005 57 290 0.9 2.6 0.00 0.53 0.00 85 1012.4
20260510031505 57 311 0.9 2.6 0.00 0.53 0.00 85 1012.6
20260510030004 57 271 0.0 4.3 0.00 0.53 0.00 85 1012.6
20260510024501 57 305 2.6 4.3 0.00 0.53 0.00 85 1012.8
20260510023001 57 310 0.9 3.5 0.00 0.53 0.00 86 1013.0
20260510021559 57 300 1.7 4.3 0.00 0.53 0.00 86 1013.0
20260510020059 57 309 2.6 6.1 0.00 0.53 0.00 86 1012.7
20260510014600 57 303 0.0 4.3 0.00 0.53 0.00 86 1012.7
20260510013102 58 288 2.6 4.3 0.00 0.53 0.00 86 1012.6
20260510011557 58 289 0.9 4.3 0.00 0.53 0.00 86 1012.7
20260510004553 58 287 0.0 3.5 0.00 0.54 0.00 86 1012.9
20260510003058 58 307 2.6 4.3 0.00 0.54 0.00 87 1013.1
20260510001551 58 278 0.0 1.7 0.00 0.54 0.00 87 1013.1
20260510000048 58 284 0.0 5.2 0.00 0.54 0.00 87 1013.5
20260509234601 58 281 0.9 3.5 0.00 0.54 0.00 87 1013.6
20260509233051 59 285 0.0 5.2 0.00 0.54 0.00 87 1013.7
20260509231601 59 294 3.5 8.7 0.00 0.54 0.00 87 1013.7
20260509230040 59 292 1.7 6.1 0.00 0.54 0.00 87 1013.7
20260509224538 59 297 1.7 4.3 0.00 0.54 0.00 87 1013.6
20260509223038 59 304 1.7 4.3 0.00 0.54 0.00 86 1013.7
20260509221535 60 319 0.9 3.5 0.00 0.54 0.00 86 1013.8
20260509220034 60 311 1.7 3.5 0.00 0.54 0.00 86 1013.8
20260509214529 60 330 0.9 2.6 0.00 0.54 0.54 87 1013.7
20260509213029 60 351 0.0 2.6 0.00 0.54 0.54 87 1013.6
20260509211528 60 316 0.0 2.6 0.00 0.54 0.54 87 1013.7
20260509210030 59 264 0.0 0.0 0.00 0.54 0.54 87 1013.7
20260509204530 59 236 0.0 0.0 0.00 0.54 0.54 88 1013.5
20260509203034 59 236 0.0 0.0 0.00 0.54 0.54 89 1013.3
20260509201525 59 236 0.0 0.0 0.00 0.54 0.54 89 1012.9
20260509200025 59 223 0.0 0.0 0.00 0.54 0.54 90 1012.9
20260509194524 60 223 0.0 0.0 0.00 0.54 0.54 90 1012.7
20260509193025 59 223 0.0 0.0 0.00 0.54 0.54 90 1012.5
20260509191524 59 223 0.0 3.5 0.00 0.54 0.54 90 1012.4
20260509190025 59 228 0.0 2.6 0.01 0.54 0.54 90 1012.1
20260509184529 59 228 0.0 1.7 0.01 0.54 0.54 90 1011.7
20260509183029 59 226 0.9 2.6 0.01 0.54 0.54 90 1011.4
20260509181520 59 295 0.0 1.7 0.01 0.54 0.54 90 1011.3
20260509180021 58 332 0.0 3.5 0.01 0.53 0.53 90 1011.0
20260509174617 58 311 0.0 0.9 0.02 0.53 0.53 90 1010.9
20260509173025 58 22 0.0 6.1 0.06 0.53 0.53 90 1011.0
20260509171525 58 32 3.5 7.8 0.13 0.53 0.53 90 1010.8
20260509170015 58 46 4.3 12.2 0.20 0.52 0.52 90 1010.8
20260509164513 58 346 5.2 9.6 0.24 0.50 0.50 90 1011.9
20260509163019 58 127 0.0 3.5 0.24 0.46 0.46 89 1012.7
20260509161517 58 145 0.9 4.3 0.18 0.39 0.39 89 1013.2
20260509160010 58 134 0.0 0.9 0.12 0.31 0.31 87 1013.7
20260509154507 59 139 3.5 8.7 0.07 0.25 0.25 84 1014.0
20260509153015 59 141 3.5 8.7 0.11 0.23 0.23 85 1013.2
20260509151503 60 134 7.0 15.6 0.13 0.20 0.20 85 1012.7
20260509150001 61 53 5.2 13.0 0.13 0.20 0.20 88 1010.1
20260509144603 61 295 7.8 16.5 0.16 0.18 0.18 87 1010.3
20260509143105 62 67 7.8 16.5 0.09 0.12 0.12 85 1011.2
20260509141553 62 109 8.7 14.8 0.06 0.08 0.08 85 1012.6
20260509140058 63 96 5.2 9.6 0.04 0.06 0.06 84 1013.4
20260509134548 64 109 2.6 9.6 0.00 0.02 0.02 82 1013.7
20260509133058 64 73 5.2 11.3 0.00 0.02 0.02 80 1013.5
20260509131547 64 72 0.9 7.0 0.00 0.02 0.02 81 1012.9
20260509130053 64 87 4.3 12.2 0.00 0.02 0.02 82 1012.0
20260509124553 64 72 5.2 11.3 0.00 0.02 0.02 80 1012.1
20260509123043 64 134 4.3 12.2 0.00 0.02 0.02 81 1012.3
20260509121551 64 141 6.1 11.3 0.00 0.02 0.02 80 1012.7
20260509120038 64 128 5.2 10.4 0.00 0.02 0.02 80 1013.4
20260509114551 64 124 5.2 10.4 0.00 0.02 0.02 81 1014.1
20260509111534 64 68 5.2 11.3 0.00 0.02 0.02 83 1014.7
20260509110033 65 131 6.1 12.2 0.00 0.02 0.02 81 1014.3
20260509104534 65 99 6.1 12.2 0.00 0.02 0.02 80 1014.3
20260509103030 65 44 4.3 11.3 0.00 0.02 0.02 80 1014.5
20260509101530 65 120 5.2 15.6 0.00 0.02 0.02 82 1014.6
20260509100029 65 109 7.0 13.9 0.00 0.02 0.02 80 1014.2
20260509094531 65 80 6.1 13.0 0.00 0.02 0.02 81 1014.2
20260509093027 65 63 5.2 10.4 0.00 0.02 0.02 81 1013.9